Tracking 17149 objects as of 22-May-2015
HD Live streaming from Space Station

BREEZE-M DEB (TANK)

Track BREEZE-M DEB (TANK) now!
BREEZE-M DEB (TANK) is classified as:


NORAD ID: 32374
Int'l Code: 2007-058B
Perigee: 485.7 km
Apogee: 34,567.7 km
Inclination: 46.5 °
Period: 612.8 minutes
Semi major axis: 23897 km
RCS: 5.0489 m2 (large)
Launch date: December 9, 2007
Source: Commonwealth of Independent States (former USSR) (CIS)

Note: This is SATELLITE DEBRIS
Your satellite tracking list
Your tracking list is empty





NASA's NSSDC Master Catalog

Two Line Element Set (TLE):
1 32374U 07058B   15141.88489918  .00000129  00000-0  16280-2 0  9997
2 32374 046.5058 039.8840 7130792 048.7115 008.9902 02.35000422 62987

Source of the keplerian elements: AFSPC

N2YO: 375